EN

Hourly Weather Alto Lucero

Today, 22 January, Friday

Time Temperature Precipitation Wind Pressure Humidity
00:00 +23°C° 0 mm 2 mps 757 mmHg 97%
01:00 +23°C° 0 mm 2 mps 757 mmHg 97%
02:00 +23°C° 0 mm 2 mps 756 mmHg 97%
03:00 +23°C° 0 mm 1 mps 756 mmHg 96%
04:00 +23°C° 0 mm 1 mps 756 mmHg 96%
05:00 +23°C° 0 mm 1 mps 756 mmHg 95%
06:00 +23°C° 0 mm 1 mps 756 mmHg 94%
07:00 +24°C° 0 mm 1 mps 757 mmHg 92%
08:00 +24°C° 0 mm 1 mps 757 mmHg 90%
09:00 +25°C° 0 mm 1 mps 758 mmHg 87%
10:00 +26°C° 0 mm 1 mps 757 mmHg 81%
11:00 +28°C° 0 mm 1 mps 757 mmHg 75%
12:00 +28°C° 0 mm 0 mps 757 mmHg 69%
13:00 +30°C° 0 mm 1 mps 756 mmHg 68%
14:00 +30°C° 0 mm 2 mps 756 mmHg 67%
15:00 +31°C° 0 mm 3 mps 755 mmHg 66%
16:00 +29°C° 0 mm 3 mps 755 mmHg 74%
17:00 +27°C° 0 mm 3 mps 755 mmHg 82%
18:00 +25°C° 0 mm 3 mps 756 mmHg 89%
19:00 +24°C° 0 mm 2 mps 756 mmHg 91%
20:00 +24°C° 0 mm 1 mps 757 mmHg 92%
21:00 +23°C° 0 mm 1 mps 757 mmHg 94%
22:00 +23°C° 0 mm 1 mps 758 mmHg 94%
23:00 +21°C° 0 mm 0 mps 758 mmHg 94%

Tomorrow, 23 January, Saturday

Time Temperature Precipitation Wind Pressure Humidity
00:00 +21°C° 0 mm 0 mps 758 mmHg 95%
01:00 +21°C° 0 mm 0 mps 758 mmHg 94%
02:00 +21°C° 0 mm 0 mps 758 mmHg 93%
03:00 +22°C° 0 mm 0 mps 757 mmHg 93%
04:00 +22°C° 0 mm 0 mps 758 mmHg 93%
05:00 +22°C° 0 mm 0 mps 758 mmHg 93%
06:00 +22°C° 0 mm 0 mps 758 mmHg 93%
07:00 +22°C° 0 mm 0 mps 758 mmHg 91%
08:00 +23°C° 0 mm 0 mps 759 mmHg 90%
09:00 +23°C° 0 mm 0 mps 759 mmHg 88%
10:00 +26°C° 0.1 mm 1 mps 759 mmHg 84%
11:00 +27°C° 0.1 mm 1 mps 758 mmHg 81%
12:00 +28°C° 0.1 mm 2 mps 758 mmHg 77%
13:00 +28°C° 0 mm 2 mps 757 mmHg 76%
14:00 +28°C° 0 mm 3 mps 756 mmHg 74%
15:00 +29°C° 0 mm 3 mps 756 mmHg 73%
16:00 +27°C° 0 mm 3 mps 756 mmHg 77%
17:00 +26°C° 0 mm 3 mps 756 mmHg 82%
18:00 +25°C° 0 mm 3 mps 756 mmHg 86%
19:00 +24°C° 0 mm 3 mps 756 mmHg 88%
20:00 +22°C° 0 mm 3 mps 756 mmHg 91%
21:00 +23°C° 0 mm 2 mps 757 mmHg 93%
22:00 +21°C° 0 mm 2 mps 757 mmHg 94%
23:00 +21°C° 0 mm 2 mps 757 mmHg 94%

Day after tomorrow, 24 January, Sunday

Time Temperature Precipitation Wind Pressure Humidity
00:00 +22°C° 0 mm 1 mps 757 mmHg 95%
01:00 +22°C° 0 mm 1 mps 756 mmHg 95%
02:00 +23°C° 0 mm 1 mps 756 mmHg 95%
03:00 +23°C° 0 mm 1 mps 756 mmHg 95%
04:00 +23°C° 0 mm 1 mps 756 mmHg 95%
05:00 +23°C° 0 mm 1 mps 756 mmHg 95%
06:00 +23°C° 0 mm 1 mps 756 mmHg 95%
07:00 +24°C° 0 mm 2 mps 756 mmHg 93%
08:00 +24°C° 0 mm 2 mps 756 mmHg 92%
09:00 +25°C° 0 mm 2 mps 757 mmHg 90%
10:00 +25°C° 0 mm 2 mps 756 mmHg 86%
11:00 +26°C° 0 mm 2 mps 756 mmHg 82%
12:00 +27°C° 0 mm 2 mps 756 mmHg 79%
13:00 +27°C° 0 mm 2 mps 755 mmHg 77%
14:00 +27°C° 0 mm 2 mps 754 mmHg 76%
15:00 +28°C° 0 mm 2 mps 753 mmHg 74%
16:00 +27°C° 0 mm 2 mps 753 mmHg 78%
17:00 +26°C° 0 mm 2 mps 753 mmHg 81%
18:00 +26°C° 0 mm 2 mps 753 mmHg 85%
19:00 +25°C° 0 mm 2 mps 754 mmHg 88%
20:00 +24°C° 0 mm 2 mps 754 mmHg 92%
21:00 +23°C° 0 mm 2 mps 755 mmHg 96%
22:00 +23°C° 0 mm 2 mps 754 mmHg 96%
23:00 +23°C° 0 mm 2 mps 754 mmHg 97%

25 January, Monday

Time Temperature Precipitation Wind Pressure Humidity
00:00 +23°C° 0 mm 2 mps 754 mmHg 98%
01:00 +23°C° 0 mm 2 mps 754 mmHg 97%
02:00 +23°C° 0 mm 1 mps 754 mmHg 97%
03:00 +23°C° 0 mm 1 mps 753 mmHg 96%
04:00 +23°C° 0 mm 1 mps 753 mmHg 96%
05:00 +23°C° 0 mm 1 mps 753 mmHg 95%
06:00 +23°C° 0 mm 2 mps 753 mmHg 95%
07:00 +24°C° 0 mm 2 mps 754 mmHg 92%
08:00 +24°C° 0 mm 2 mps 754 mmHg 89%
09:00 +25°C° 0 mm 2 mps 755 mmHg 87%
10:00 +27°C° 0 mm 1 mps 754 mmHg 79%
11:00 +29°C° 0 mm 1 mps 754 mmHg 72%
12:00 +29°C° 0 mm 0 mps 754 mmHg 65%
13:00 +31°C° 0 mm 1 mps 753 mmHg 63%
14:00 +32°C° 0 mm 2 mps 752 mmHg 62%
15:00 +33°C° 0 mm 3 mps 751 mmHg 60%
16:00 +30°C° 0 mm 3 mps 751 mmHg 69%
17:00 +28°C° 0 mm 3 mps 752 mmHg 78%
18:00 +26°C° 0 mm 3 mps 752 mmHg 87%
19:00 +25°C° 0 mm 2 mps 752 mmHg 89%
20:00 +24°C° 0 mm 2 mps 753 mmHg 90%
21:00 +23°C° 0 mm 1 mps 754 mmHg 91%
22:00 +23°C° 0 mm 1 mps 754 mmHg 91%
23:00 +23°C° 0 mm 1 mps 754 mmHg 91%

26 January, Tuesday

Time Temperature Precipitation Wind Pressure Humidity
00:00 +21°C° 0 mm 0 mps 754 mmHg 91%
01:00 +23°C° 0 mm 1 mps 754 mmHg 92%
02:00 +23°C° 0 mm 1 mps 754 mmHg 93%
03:00 +23°C° 0 mm 1 mps 754 mmHg 94%
04:00 +22°C° 0 mm 1 mps 754 mmHg 94%
05:00 +22°C° 0 mm 1 mps 754 mmHg 95%
06:00 +21°C° 0 mm 2 mps 754 mmHg 95%
07:00 +23°C° 0 mm 2 mps 755 mmHg 92%
08:00 +24°C° 0 mm 2 mps 755 mmHg 89%
09:00 +25°C° 0 mm 2 mps 756 mmHg 86%
10:00 +26°C° 0 mm 2 mps 755 mmHg 80%
11:00 +28°C° 0 mm 2 mps 755 mmHg 74%
12:00 +29°C° 0 mm 1 mps 755 mmHg 69%
13:00 +30°C° 0 mm 2 mps 754 mmHg 68%
14:00 +30°C° 0 mm 2 mps 753 mmHg 67%
15:00 +30°C° 0 mm 3 mps 752 mmHg 66%
16:00 +29°C° 0 mm 3 mps 753 mmHg 72%
17:00 +27°C° 0 mm 2 mps 753 mmHg 79%
18:00 +26°C° 0 mm 2 mps 753 mmHg 85%
19:00 +25°C° 0.5 mm 2 mps 753 mmHg 88%
20:00 +24°C° 0.5 mm 2 mps 754 mmHg 91%
21:00 +23°C° 0.5 mm 2 mps 754 mmHg 95%
22:00 +23°C° 0.2 mm 2 mps 754 mmHg 94%
23:00 +21°C° 0.2 mm 2 mps 754 mmHg 94%

27 January, Wednesday

Time Temperature Precipitation Wind Pressure Humidity
00:00 +22°C° 0.2 mm 1 mps 754 mmHg 93%
01:00 +22°C° 0 mm 1 mps 754 mmHg 93%
02:00 +22°C° 0 mm 1 mps 754 mmHg 92%
03:00 +20°C° 0 mm 0 mps 754 mmHg 92%
04:00 +22°C° 0 mm 1 mps 755 mmHg 92%
05:00 +22°C° 0 mm 1 mps 755 mmHg 92%
06:00 +22°C° 0 mm 1 mps 755 mmHg 92%
07:00 +23°C° 0 mm 1 mps 756 mmHg 90%
08:00 +24°C° 0 mm 2 mps 757 mmHg 87%
09:00 +25°C° 0 mm 2 mps 758 mmHg 85%
10:00 +26°C° 0.1 mm 4 mps 759 mmHg 83%
11:00 +27°C° 0.1 mm 6 mps 759 mmHg 81%
12:00 +27°C° 0.1 mm 8 mps 760 mmHg 80%
13:00 +26°C° 0.4 mm 8 mps 760 mmHg 82%
14:00 +23°C° 0.4 mm 8 mps 760 mmHg 85%
15:00 +21°C° 0.4 mm 9 mps 760 mmHg 87%
16:00 +21°C° 0.3 mm 8 mps 760 mmHg 86%
17:00 +21°C° 0.3 mm 7 mps 761 mmHg 85%
18:00 +20°C° 0.3 mm 7 mps 762 mmHg 85%
19:00 +20°C° 0.1 mm 6 mps 763 mmHg 84%
20:00 +20°C° 0.1 mm 5 mps 764 mmHg 83%
21:00 +19°C° 0.1 mm 4 mps 764 mmHg 82%
22:00 +19°C° 0.1 mm 4 mps 764 mmHg 81%
23:00 +19°C° 0.1 mm 4 mps 765 mmHg 80%
Show more